Content
SEND FEEDBACK

Daily
Averages
Monthly
Summary
Philippines

BAGUMBAYAN, PHILIPPINES


Home > Asia > Philippines
Elevation: 49 feet     Latitude: 14 31N     Longitude: 121 00E

WEATHER
 
SELECT A DAY
Number of Records: 172,847;   Date Range: 7/1/96 - 9/22/14
 
SHARE

PRINT THIS DATA

[ ← Previous Day ]
WEATHER ALMANAC - SEPTEMBER 15, 2013
[ Next Day → ]
[ °C ]   °F
Weather ElementAverageHighLow
Temperature78 °F84.2 °F (10:00 am)74 °F (5:00 pm)
Dewpoint77.2 °F79 °F (11:00 am)74 °F (5:00 pm)
Humidity97.1 %100 % (2:00 am)84 % (10:00 am)
Barometer29.72 in29.80 in (11:00 pm)29.68 in (3:00 am)
Wind Speed6.3 mph13.8 mph (5:00 pm)
Weather ElementAverage
Visibility5.7 mi
Wind DirectionSSW (211.3 °)

Weather ElementTotal
Precipitation---
Cooling Degree Days14.1 (Base 65)
Growing Degree Days29.1 (Base 50)
Averaged from 32 records on September 15, 2013
WEATHER CONDITIONS BREAKOUT
WIND DIRECTION BREAKOUT
WEATHER BY HOUR - SEPTEMBER 15, 2013
[ °C ]   °F
Local TimeTemperatureDewpointHumidityBarometerVisibilityWind DirectionWind SpeedGust SpeedPrecipitationEventsConditions
1:00 AM78.8 °F77.0 °F94 %29.71 in6.2 miWNW (290°)6.9 mphOvercast
2:00 AM78.0 °F78.0 °F100 %29.72 in6.0 miSW (230°)6.7 mphHaze
2:00 AM78.8 °F77.0 °F94 %29.71 in6.2 miSW (230°)5.8 mphOvercast
3:00 AM78.8 °F78.8 °F100 %29.68 in6.2 miSW (230°)8.1 mphOvercast
4:00 AM77.0 °F77.0 °F100 %29.68 in6.2 miSW (220°)6.9 mphOvercast
5:00 AM76.0 °F76.0 °F100 %29.68 in6.0 miSW (220°)4.5 mphRainLight Rain
5:00 AM77.0 °F75.2 °F94 %29.68 in6.2 miSW (230°)5.8 mphRainLight Rain
6:00 AM77.0 °F77.0 °F100 %29.71 in6.2 miWSW (250°)3.5 mphRainLight Rain
7:00 AM78.8 °F77.0 °F94 %29.71 in6.2 miWest (270°)4.6 mphMostly Cloudy
8:00 AM80.0 °F78.0 °F91 %29.76 in6.0 miWSW (240°)2.2 mphHaze
8:00 AM80.6 °F78.8 °F94 %29.74 in6.2 miWSW (240°)3.5 mphMostly Cloudy
9:00 AM82.4 °F78.8 °F89 %29.74 in6.2 miWSW (250°)8.1 mphMostly Cloudy
10:00 AM84.2 °F78.8 °F84 %29.74 in6.2 miWest (270°)11.5 mphScattered Clouds
10:35 AM78.8 °F78.8 °F100 %29.74 in6.2 miWSW (240°)4.6 mphRainLight Rain Showers
11:00 AM82.0 °F79.0 °F87 %29.75 in6.0 miWest (270°)8.9 mphRainLight Rain
11:00 AM82.4 °F78.8 °F89 %29.74 in6.2 miWest (270°)9.2 mphRainLight Rain
12:00 PM78.8 °F78.8 °F100 %29.74 in4.3 miWest (260°)8.1 mphRainRain
1:00 PM78.8 °F78.8 °F100 %29.71 in6.2 miWNW (300°)6.9 mphRainRain
2:00 PM79.0 °F79.0 °F98 %29.71 in6.0 miSW (220°)6.7 mphRainLight Rain
2:00 PM78.8 °F78.8 °F100 %29.68 in6.2 miSW (230°)5.8 mphRainRain
3:00 PM78.8 °F78.8 °F100 %29.68 in6.2 miVariable3.5 mphRainLight Rain
4:00 PM77.0 °F77.0 °F100 %29.68 in3.1 miWest (270°)8.1 mphRainRain
5:00 PM74.0 °F74.0 °F100 %29.71 inSW (230°)11.2 mphRainHeavy Rain
5:00 PM75.2 °F75.2 °F100 %29.71 in1.9 miSW (230°)13.8 mphRainHeavy Rain
6:00 PM75.2 °F75.2 °F100 %29.71 in5.0 miSW (220°)6.9 mphRainRain
7:00 PM75.2 °F75.2 °F100 %29.74 in4.3 miVariable2.3 mphRainRain
8:00 PM76.0 °F76.0 °F98 %29.77 in5.0 miSW (230°)4.5 mphRainLight Rain
8:00 PM75.2 °F75.2 °F100 %29.74 in5.0 miSW (230°)4.6 mphRainLight Rain
9:00 PM75.2 °F75.2 °F100 %29.77 in6.2 miEast (80°)9.2 mphRainLight Rain
10:00 PM75.2 °F75.2 °F100 %29.77 in6.2 miEast (90°)3.5 mphRainLight Rain
11:00 PM76.0 °F76.0 °F100 %29.80 in6.0 miESE (120°)2.2 mphRainLight Rain
11:00 PM77.0 °F77.0 °F100 %29.77 in6.2 miEast (100°)3.5 mphRainLight Rain
Hourly data recorded from RPLL, located miles away from Bagumbayan, Philippines







STORIES FROM OUR PARTNERS